Weather History for Hatteras, NC

Change the Weather History Date:

Sunday, June 30, 2013

  Actual Average Record
Temperature  
Mean Temperature 77 °F 78 °F  
Max Temperature 80 °F 84 °F 94 °F (1959)
Min Temperature 74 °F 73 °F 58 °F (1964)
Degree Days  
Heating Degree Days 0 0  
Month to date heating degree days 0 0  
Since 1 June heating degree days 0 3  
Since 1 July heating degree days 2420 2587  
Cooling Degree Days 12 13  
Month to date cooling degree days 400 308  
Year to date cooling degree days 562 451  
Since 1 June cooling degree days 400 308  
Growing Degree Days 26 (Base 50)    
Moisture  
Dew Point 73 °F    
Average Humidity 87    
Maximum Humidity 94    
Minimum Humidity 79    
Precipitation  
Precipitation 0.84 in 0.15 in 2.54 in (1985)
Month to date precipitation 6.36 4.03  
Year to date precipitation 25.55 25.27  
Snow  
Snow 0.00 in - - ()
Month to date snowfall 0.0  
Since 1 July snowfall 0.0  
Snow Depth 0.00 in    
Sea Level Pressure  
Sea Level Pressure 29.88 in    
Wind  
Wind Speed 14 mph (SSW)    
Max Wind Speed 26 mph    
Max Gust Speed 38 mph    
Visibility 6 miles    
Events Rain    
T = Trace of Precipitation, MM = Missing Value Source: NWS Daily Summary

Daily Weather History Graph

Daily Weather History Graph

Search for Another Location

Airport:

Trip Planner

Search our weather history database for the weather conditions in past years. The results will help you decide how hot, cold, wet, or windy it might be!

Date:

Astronomy

Jun. 30, 2013 Rise Set
Actual Time 5:51 AM EDT 8:21 PM EDT
Civil Twilight 5:21 AM EDT 8:50 PM EDT
Nautical Twilight 4:44 AM EDT 9:27 PM EDT
Astronomical Twilight 4:04 AM EDT 10:08 PM EDT
Moon 12:37 AM EDT 1:43 PM EDT
Length of Visible Light 15h 29m
Length of Day
14h 29m
Last Quarter, 45% of the Moon is Illuminated
Jun 30
Last Quarter
Jul 8
New
Jul 15
First Quarter
Jul 22
Full
Jul 29
Last Quarter

Hourly Weather History & Observations

Time (EDT) Temp. Heat Index Dew Point Humidity Pressure Visibility Wind Dir Wind Speed Gust Speed Precip Events Conditions
12:51 AM 79.0 °F - 73.9 °F 84% 29.82 in 9.0 mi SSW 23.0 mph 31.1 mph N/A   Scattered Clouds
1:13 AM 78.8 °F - 73.4 °F 83% 29.81 in 8.0 mi SSW 21.9 mph 28.8 mph N/A   Mostly Cloudy
1:20 AM 78.8 °F - 73.4 °F 83% 29.82 in 9.0 mi SSW 19.6 mph 27.6 mph N/A   Scattered Clouds
1:51 AM 80.1 °F 85.1 °F 75.0 °F 85% 29.81 in 9.0 mi SW 17.3 mph 26.5 mph N/A   Unknown
2:51 AM 78.1 °F - 71.1 °F 79% 29.82 in 9.0 mi SSW 24.2 mph 38.0 mph N/A   Partly Cloudy
3:51 AM 77.0 °F - 72.0 °F 84% 29.81 in 9.0 mi SW 15.0 mph 27.6 mph 0.01 in   Partly Cloudy
4:51 AM 78.1 °F - 73.0 °F 84% 29.81 in 9.0 mi SSW 18.4 mph 24.2 mph N/A   Clear
5:51 AM 79.0 °F - 73.9 °F 84% 29.83 in 8.0 mi SSW 13.8 mph 20.7 mph N/A   Clear
6:48 AM 75.2 °F - 71.6 °F 89% 29.84 in 2.5 mi SW 15.0 mph 25.3 mph 0.05 in Rain Rain
6:51 AM 75.0 °F - 72.0 °F 90% 29.84 in 3.0 mi SW 13.8 mph 25.3 mph 0.05 in Rain Light Rain
7:51 AM 75.9 °F - 73.0 °F 91% 29.85 in 6.0 mi SW 8.1 mph - 0.01 in   Partly Cloudy
8:07 AM 77.0 °F - 73.4 °F 89% 29.86 in 6.0 mi SSW 13.8 mph 20.7 mph N/A   Mostly Cloudy
8:22 AM 78.8 °F - 73.4 °F 83% 29.86 in 6.0 mi SSW 13.8 mph 20.7 mph N/A   Mostly Cloudy
8:51 AM 79.0 °F - 73.9 °F 84% 29.87 in 8.0 mi SSW 12.7 mph 21.9 mph N/A   Partly Cloudy
9:18 AM 75.2 °F - 71.6 °F 89% 29.89 in 1.5 mi WSW 20.7 mph 29.9 mph 0.00 in Rain Light Rain
9:20 AM 75.2 °F - 71.6 °F 89% 29.89 in 1.0 mi WSW 17.3 mph 29.9 mph 0.01 in Rain Rain
9:29 AM 75.2 °F - 71.6 °F 89% 29.89 in 0.8 mi SSW 12.7 mph 23.0 mph 0.13 in Rain Heavy Rain
9:36 AM 73.4 °F - 71.6 °F 94% 29.88 in 1.5 mi SW 11.5 mph 18.4 mph 0.18 in Rain Light Rain
9:39 AM 73.4 °F - 71.6 °F 94% 29.89 in 3.0 mi SW 10.4 mph - 0.18 in Rain Light Rain
9:51 AM 73.9 °F - 71.1 °F 91% 29.88 in 6.0 mi SW 12.7 mph 19.6 mph 0.18 in   Mostly Cloudy
10:51 AM 75.9 °F - 73.0 °F 91% 29.89 in 5.0 mi SSW 12.7 mph 21.9 mph 0.03 in Rain Light Rain
11:51 AM 79.0 °F - 75.0 °F 88% 29.90 in 3.0 mi SSW 10.4 mph - 0.01 in Rain Light Rain
12:01 PM 77.0 °F - 73.4 °F 89% 29.91 in 1.2 mi South 18.4 mph 25.3 mph 0.01 in Rain Light Rain
12:12 PM 75.2 °F - 73.4 °F 94% 29.90 in 2.0 mi SSW 11.5 mph - 0.14 in Rain Light Rain
12:22 PM 77.0 °F - 73.4 °F 89% 29.90 in 0.8 mi SSW 15.0 mph 20.7 mph 0.20 in Rain Heavy Rain
12:37 PM 75.2 °F - 73.4 °F 94% 29.90 in 1.5 mi South 13.8 mph 27.6 mph 0.55 in Rain Light Rain
12:39 PM 77.0 °F - 73.4 °F 89% 29.90 in 3.0 mi South 15.0 mph 26.5 mph 0.55 in Rain Light Rain
12:46 PM 77.0 °F - 75.2 °F 94% 29.90 in 4.0 mi SSW 12.7 mph 20.7 mph 0.55 in Rain Light Rain
12:51 PM 77.0 °F - 75.0 °F 94% 29.91 in 5.0 mi SSW 12.7 mph 19.6 mph 0.55 in Rain Light Rain
1:00 PM 78.8 °F - 75.2 °F 89% 29.90 in 5.0 mi SSW 12.7 mph - N/A   Mostly Cloudy
1:26 PM 78.8 °F - 73.4 °F 83% 29.90 in 8.0 mi SSW 12.7 mph - 0.00 in   Mostly Cloudy
1:51 PM 79.0 °F - 73.9 °F 84% 29.90 in 6.0 mi SSW 11.5 mph - 0.00 in   Haze
2:34 PM 78.8 °F - 73.4 °F 83% 29.88 in 7.0 mi South 9.2 mph - 0.00 in   Scattered Clouds
2:51 PM 79.0 °F - 73.9 °F 84% 29.88 in 6.0 mi South 10.4 mph - 0.00 in   Haze
3:51 PM 79.0 °F - 73.0 °F 82% 29.89 in 8.0 mi South 11.5 mph 18.4 mph N/A   Clear
4:29 PM 78.8 °F - 73.4 °F 83% 29.89 in 7.0 mi South 12.7 mph 21.9 mph N/A   Partly Cloudy
4:51 PM 80.1 °F 84.5 °F 73.9 °F 81% 29.88 in 8.0 mi South 13.8 mph 21.9 mph N/A   Clear
5:51 PM 80.1 °F 84.2 °F 73.0 °F 79% 29.88 in 10.0 mi South 15.0 mph 23.0 mph N/A   Clear
6:51 PM 80.1 °F 84.5 °F 73.9 °F 81% 29.89 in 9.0 mi South 17.3 mph 25.3 mph N/A   Partly Cloudy
7:51 PM 79.0 °F - 73.9 °F 84% 29.91 in 8.0 mi South 17.3 mph 24.2 mph N/A   Clear
8:51 PM 79.0 °F - 73.9 °F 84% 29.94 in 9.0 mi South 16.1 mph 23.0 mph N/A   Clear
9:51 PM 79.0 °F - 75.0 °F 88% 29.94 in 8.0 mi South 12.7 mph - N/A   Clear
10:51 PM 79.0 °F - 75.9 °F 90% 29.95 in 7.0 mi SSW 9.2 mph - 0.00 in   Clear
11:51 PM 79.0 °F - 75.0 °F 88% 29.95 in 8.0 mi SSW 10.4 mph - N/A   Clear